DNKN

Mallam Aminu Kano International Airport

Airport
ICAO code
DNKN
IATA Code
KAN
Summary
ICAO Region
AFI
ICAO Territory
Location

Kano, Kano State

Serving
Kano
Elevation
1562 ft
Coordinates
12° 2' 55" N , 8° 31' 20" E
KCC
Metar
Observation
DNKN 271300Z 04007KT CAVOK 36/00 Q1011 NOSIG
Station
Kano
Date/Time
2023-01-27 13:00:00
Wind direction
40°
Wind speed
07 kts
Lowest cloud amount
clouds and visibility OK
Temperature
36°C
Dew point
0°C
Humidity
10%
QNH
1011 hPa
Weather condition
n/a

Mallam Aminu Kano International Airport is an airport serving Kano, the capital city of Kano State of Nigeria.

Climatology

Warm Steppe climate (Köppen climate classification BSh)

Runways

Designator Length Width Surface Rops
5/23 2451 45 ASP Yes/Yes
6/24 3301 60 ASP Yes/Yes

Airport map

Aerial View

SKYbrary Partners:

Safety knowledge contributed by: